Temperature
20 21 20 20 20 20 20 20 20 19 19 19 19 19 19 19 19 19 19 19 19 19 19 19 19 19 19 19 19 19 19 19 19 19 19 19 19 19 19 19 18 18 19
21 21 20 20 20 20 20 20 19 19 19 19 19 19 19 19 19 19 19 19 19 19 19 19 19 19 19 19 19 19 19 19 19 19 19 19 19 19 19 19 19 19 19
21 21 21 20 20 20 20 20 19 19 19 19 19 19 19 19 19 19 19 19 19 19 19 19 19 19 19 19 19 19 19 19 19 19 19 19 19 19 19 19 19 19 19
20 21 21 20 20 20 20 20 19 19 19 19 19 19 19 19 19 19 19 19 19 19 19 19 18 18 19 19 19 19 19 19 19 18 18 18 18 19 19 19 19 19 19
20 20 21 20 20 20 20 20 19 19 19 19 19 19 19 19 19 19 19 19 19 18 18 18 18 18 18 18 18 19 19 19 18 18 18 18 19 19 19 19 19 19 19
20 20 21 20 20 20 20 20 19 19 19 19 19 19 19 19 19 19 19 19 18 18 18 18 18 18 18 18 18 18 19 18 18 18 18 18 19 19 19 19 19 19 19
20 20 21 20 20 20 20 19 19 19 19 19 19 19 19 19 19 19 19 19 19 18 18 18 18 18 18 18 18 18 18 18 18 18 18 18 19 19 19 19 18 18 19
20 20 20 20 20 20 20 19 19 19 19 19 19 19 19 19 19 19 18 19 19 19 18 18 18 18 18 18 18 18 19 18 18 18 18 18 19 19 19 18 18 18 18
21 20 20 20 20 20 20 19 19 19 19 19 19 19 19 19 18 19 19 19 19 19 18 18 18 18 18 18 18 19 18 18 18 18 18 18 18 18 18 18 18 18 18
21 20 20 19 20 20 20 19 19 19 19 19 19 18 18 18 18 18 18 19 19 19 19 18 18 18 18 18 18 19 18 18 18 18 18 18 18 18 18 18 18 18 18
22 21 20 19 19 19 19 19 19 19 19 19 18 18 18 18 18 18 18 18 19 19 19 19 19 19 18 18 19 19 18 18 18 18 18 18 18 18 18 18 18 18 18
22 22 21 20 20 19 19 19 19 19 19 19 18 18 18 18 17 17 17 18 19 19 19 19 19 19 19 18 19 19 19 19 18 18 18 18 18 18 18 18 18 18 18
23 22 22 21 20 20 19 19 19 19 18 18 18 18 18 18 18 18 18 18 19 19 18 19 19 19 19 18 19 19 19 19 18 18 18 18 18 18 18 18 18 18 18
23 23 23 22 21 20 20 19 19 19 19 18 18 18 18 18 18 18 18 18 18 18 18 18 18 19 19 19 19 19 19 19 18 18 18 18 18 18 18 18 18 18 18
24 23 23 22 22 21 20 20 19 19 19 19 19 18 18 18 18 19 19 18 18 18 18 18 19 19 19 19 19 19 18 18 18 18 17 17 17 18 18 18 18 18 18
24 24 23 23 22 22 21 20 20 19 19 19 19 19 19 19 19 19 19 19 19 19 19 19 19 19 19 19 19 18 18 18 18 18 17 17 17 17 17 17 17 17 17
25 24 24 23 22 22 21 21 20 20 20 19 19 19 19 19 19 19 19 19 19 19 19 19 19 19 19 18 18 18 18 18 18 17 17 17 17 17 17 17 17 17 17
25 25 24 23 23 22 22 21 21 20 20 20 19 19 20 19 19 19 19 19 19 19 19 19 19 18 18 18 18 18 18 18 18 18 17 17 17 17 17 17 17 17 17
24 24 24 23 22 22 22 21 21 21 20 20 20 19 20 20 19 19 19 19 19 19 19 19 18 18 18 18 18 18 18 18 18 18 18 17 17 17 17 17 17 17 17
23 23 24 23 22 22 22 21 21 21 20 20 20 19 19 19 19 19 19 19 19 18 18 18 18 18 18 18 18 18 18 18 18 18 18 18 18 17 17 17 17 17 17
22 22 23 23 22 22 21 21 21 20 20 20 19 19 19 19 19 19 18 18 18 18 18 18 18 18 18 18 18 18 18 18 18 18 18 18 18 17 17 17 17 16 17
20 21 21 22 22 22 21 21 20 20 20 19 19 19 19 19 18 18 18 18 18 18 18 17 17 17 17 17 17 17 17 18 18 18 18 18 18 18 18 17 17 17 16
19 19 20 20 21 22 21 21 20 20 19 19 19 19 18 18 18 18 18 17 17 17 17 17 17 17 17 17 17 17 17 17 18 18 18 18 18 18 17 17 17 17 17
17 18 19 20 20 21 21 21 20 20 19 19 19 18 18 18 18 18 17 17 17 17 17 17 17 17 17 17 17 17 17 17 17 17 17 18 18 18 17 17 17 17 17
16 17 18 18 19 20 20 20 20 19 19 18 18 18 18 18 18 17 17 17 17 17 17 17 17 16 16 16 16 17 17 16 16 17 17 17 17 17 17 17 17 17 17
16 16 17 17 18 19 19 19 19 19 18 18 17 17 17 17 17 17 16 16 16 17 17 17 16 16 16 16 16 16 16 16 16 16 16 16 17 17 17 17 17 17 16
Wind_Speed
13 16 16 16 15 14 13 13 13 13 13 13 13 12 12 12 12 11 11 10 10 9 8 7 6 5 5 4 4 4 4 5 5 5 5 5 6 6 6 7 6 5 7
17 18 16 16 15 14 13 12 12 12 13 13 12 12 12 12 12 11 10 10 9 9 8 7 7 6 5 5 5 5 5 5 4 3 3 5 6 7 8 9 10 8 7
18 18 16 16 15 13 12 12 11 12 12 12 12 12 12 12 11 11 10 10 9 8 8 7 6 6 6 5 5 5 5 3 2 1 1 4 8 8 9 9 9 9 8
18 17 16 16 14 13 12 11 11 11 11 11 11 11 11 11 11 10 10 9 9 8 8 7 6 6 5 5 5 5 4 2 1 2 4 6 8 9 9 10 10 10 9
17 16 18 16 14 13 12 11 11 11 11 11 11 11 10 10 10 10 10 9 9 9 9 8 7 6 5 5 4 4 3 1 1 2 8 10 9 8 9 10 10 10 9
16 17 17 15 14 13 12 11 11 11 11 11 10 10 10 10 9 9 9 9 9 9 9 8 7 6 5 4 4 4 2 1 2 4 9 10 8 7 8 8 8 9 9
16 17 17 15 14 12 11 11 11 11 11 10 10 10 9 9 9 9 9 9 9 9 8 8 7 6 6 6 5 4 2 1 1 5 9 9 7 6 7 7 7 8 8
16 16 16 15 13 12 11 11 11 11 11 10 10 9 9 8 9 9 9 8 8 8 7 7 6 6 6 6 5 3 1 3 2 7 10 9 7 6 6 6 6 7 7
16 15 15 14 13 12 11 11 11 11 10 10 10 9 9 8 8 9 9 8 7 7 6 5 4 4 4 4 3 1 1 3 1 6 9 9 8 7 6 6 6 6 6
14 15 14 15 15 13 12 11 11 10 10 10 10 10 9 8 8 9 10 8 7 6 4 3 3 2 3 3 3 2 3 5 1 10 11 9 8 7 6 5 5 5 6
11 12 13 13 13 14 15 14 12 11 10 10 10 10 10 10 11 10 10 11 7 6 4 3 3 4 4 6 6 6 5 7 3 11 11 10 8 7 6 5 5 5 5
11 12 12 12 11 11 11 14 12 12 12 11 11 12 11 11 9 10 14 11 8 7 6 6 7 7 8 9 10 9 8 8 4 11 11 11 9 7 6 5 5 5 5
11 10 12 12 11 9 7 10 8 9 10 12 11 13 12 9 9 12 10 9 9 9 9 9 10 10 12 10 9 10 5 1 7 12 11 10 7 6 5 5 5 4 4
10 10 10 12 11 11 9 7 7 6 6 7 11 13 10 4 5 8 8 11 11 10 9 9 9 11 10 9 6 5 5 2 8 12 11 9 6 5 4 4 4 4 3
10 10 10 10 11 10 9 7 8 6 7 9 10 12 11 4 5 3 4 8 8 9 6 4 5 2 2 5 4 5 4 4 7 12 10 9 6 5 4 4 4 3 3
11 11 9 9 9 10 9 8 7 6 7 7 8 10 12 7 3 3 3 3 3 6 7 5 2 3 1 2 3 4 3 4 5 11 12 10 8 6 5 5 5 4 4
7 9 11 10 9 10 10 9 7 6 8 5 7 10 11 10 6 4 3 5 3 5 6 3 1 3 2 3 2 1 3 2 2 8 12 12 10 8 8 7 6 5 4
1 4 8 10 9 9 8 8 6 6 6 5 8 7 8 10 9 5 2 3 3 4 2 3 2 1 1 2 3 2 3 2 2 5 8 11 12 10 9 9 8 7 6
6 3 5 8 8 7 8 6 5 5 6 4 6 6 4 6 8 6 3 1 2 2 2 2 2 1 0 1 1 1 1 3 2 3 4 10 13 14 12 10 10 9 7
9 7 4 6 8 7 6 6 5 4 5 5 3 4 4 2 4 5 3 2 2 3 1 1 1 1 1 1 2 2 1 1 2 2 1 5 9 14 15 13 12 9 9
9 9 8 3 6 6 6 6 6 5 4 4 4 5 5 1 2 4 3 2 2 3 1 1 0 1 1 1 2 2 2 3 4 3 2 2 3 9 14 15 13 12 10
11 10 10 7 4 6 6 7 6 6 5 5 4 4 5 3 1 3 4 3 2 1 1 2 1 1 1 1 1 0 2 3 3 3 3 2 2 4 4 8 13 14 13
12 11 11 10 7 5 6 6 6 5 5 4 4 4 4 4 3 2 2 3 3 3 3 4 4 4 4 3 2 3 3 4 2 3 4 4 4 3 3 3 6 13 15
12 12 12 10 8 6 4 7 8 7 6 5 5 5 5 4 3 3 2 0 2 3 4 5 6 5 5 5 4 4 4 3 3 2 3 2 3 4 4 3 2 2 11
13 12 11 10 8 6 2 4 7 6 5 5 5 7 6 5 4 3 1 1 3 3 5 6 5 5 6 6 5 4 4 3 4 3 3 3 2 2 2 2 3 3 6
11 11 11 9 8 8 6 3 5 7 8 7 6 5 4 4 3 2 1 1 3 4 5 5 5 6 6 7 6 5 4 3 4 4 4 4 3 3 3 2 3 4 6
Wind_Direction
126 128 138 133 130 126 121 117 115 115 113 111 108 105 102 98 95 92 90 90 91 92 97 100 99 95 91 90 90 89 88 87 83 79 76 69 60 49 41 29 21 81 88
127 130 138 135 133 129 125 121 119 117 115 113 110 106 102 99 95 93 92 92 92 93 93 94 96 96 93 97 103 104 101 95 94 95 96 89 75 61 50 44 51 75 85
125 132 138 136 135 133 130 127 124 121 118 116 112 108 104 102 99 95 93 92 92 94 95 94 95 97 96 96 107 112 110 102 86 42 30 91 91 68 59 57 61 66 75
128 139 140 140 139 138 137 135 132 128 124 120 117 113 110 106 102 97 93 90 88 90 95 95 93 93 95 97 106 112 111 105 58 3 41 64 72 71 67 65 66 66 71
133 137 134 144 145 145 144 143 139 135 132 128 124 120 116 112 107 102 95 90 87 86 87 89 91 89 92 100 109 115 118 119 345 42 84 85 77 72 73 70 68 69 73
132 129 138 146 148 150 151 151 148 145 142 137 132 128 124 119 114 110 103 96 89 85 83 82 85 86 90 98 109 120 136 202 301 79 91 98 93 83 78 74 72 73 72
134 133 144 149 152 155 158 158 156 154 151 147 142 138 134 129 123 117 112 105 98 91 87 83 83 86 88 93 104 118 135 255 260 104 102 103 102 94 86 85 80 79 78
138 139 144 153 157 160 163 164 163 162 160 156 150 146 142 137 130 126 119 113 105 99 92 85 81 87 91 96 104 123 162 286 173 123 115 116 113 101 97 97 95 90 83
142 142 147 159 163 167 170 171 170 169 167 164 159 154 150 147 142 138 132 125 118 111 105 96 88 91 98 105 113 141 249 293 329 120 117 114 114 108 105 104 103 104 98
149 150 158 165 169 172 175 178 177 175 174 171 167 163 161 161 161 157 153 140 136 130 124 120 125 134 143 157 178 221 271 293 229 110 105 107 105 105 107 109 111 111 108
161 159 164 169 171 173 173 173 175 179 179 174 175 174 175 185 182 180 163 148 153 154 162 181 197 207 208 208 215 228 253 258 170 106 101 104 102 104 104 106 111 111 112
172 170 168 169 168 171 171 158 176 180 177 189 185 182 201 213 192 163 144 155 165 176 192 214 225 233 230 216 217 222 241 243 163 111 108 108 104 105 107 108 108 108 114
177 176 169 170 169 164 154 157 172 172 176 195 191 189 208 208 161 142 157 160 180 193 207 212 223 231 223 214 197 203 220 312 94 106 112 110 109 111 112 112 110 109 114
174 175 175 168 168 168 166 157 161 169 180 188 194 197 200 205 200 171 170 174 185 198 208 198 218 222 223 192 194 170 139 77 97 110 117 117 117 122 126 126 124 124 126
166 173 184 173 174 174 163 157 173 172 180 189 191 196 192 189 213 171 181 167 186 180 172 240 245 162 47 59 47 63 75 84 106 114 126 128 128 127 134 136 130 132 131
165 179 179 180 175 166 162 174 175 171 177 182 176 197 190 185 205 152 206 144 200 164 169 221 210 113 87 76 52 61 45 59 109 127 137 136 133 127 124 130 129 121 123
169 182 171 181 185 180 176 179 173 170 174 173 174 203 191 178 188 165 205 154 196 177 182 220 127 111 126 133 138 104 89 47 52 130 142 149 143 130 124 122 127 127 122
232 186 170 180 190 184 172 174 171 173 165 164 167 203 200 177 181 165 172 149 184 175 155 114 50 94 147 179 168 168 144 140 240 145 159 155 152 144 136 131 128 128 124
325 271 177 174 189 188 171 172 169 170 158 156 162 172 208 184 176 152 145 142 158 114 109 149 170 162 207 150 137 142 202 170 182 205 184 155 152 152 149 147 143 139 136
324 309 258 183 184 189 170 175 173 178 161 150 144 147 176 195 148 130 130 158 122 112 83 19 131 94 29 1 290 202 192 199 229 237 166 150 167 161 161 165 161 157 152
333 324 308 245 193 191 175 179 173 171 161 143 138 135 141 126 92 111 125 121 87 108 134 275 310 163 247 285 321 342 323 264 251 184 209 231 206 155 165 172 175 167 160
341 336 324 304 247 203 186 178 179 166 157 150 140 133 130 139 109 110 124 127 122 127 188 263 287 166 256 253 179 150 316 311 297 242 204 208 254 157 193 188 173 164 166
346 339 324 315 292 245 199 176 168 156 150 144 138 120 96 91 73 73 110 143 170 172 202 234 241 217 219 246 220 173 188 227 268 285 240 207 209 183 199 226 187 174 166
347 340 329 321 310 287 213 179 172 168 167 166 151 128 107 84 69 53 23 316 206 191 203 224 230 221 211 227 238 227 216 193 183 272 295 265 220 205 204 201 205 155 158
353 348 341 333 334 334 294 185 170 159 157 143 133 128 122 108 83 62 348 295 265 233 218 219 233 222 217 222 225 224 230 240 226 207 250 283 291 258 232 223 175 187 158
359 357 356 359 13 16 22 66 129 137 131 129 127 126 116 109 98 88 306 281 272 259 245 225 217 223 222 225 225 219 211 208 214 215 222 236 250 262 247 223 184 180 171
Height
1514 1515 1517 1519 1522 1524 1526 1528 1530 1532 1533 1535 1536 1537 1538 1539 1540 1541 1543 1544 1545 1546 1547 1548 1548 1549 1550 1551 1552 1553 1554 1554 1555 1556 1556 1556 1556 1556 1556 1556 1556 1556 1556
1514 1516 1518 1520 1523 1525 1527 1530 1532 1533 1534 1536 1537 1538 1539 1540 1541 1542 1544 1545 1546 1547 1548 1549 1549 1550 1551 1552 1553 1554 1554 1555 1556 1557 1557 1557 1557 1557 1557 1557 1556 1557 1557
1514 1517 1519 1521 1524 1526 1529 1531 1532 1534 1536 1537 1538 1539 1540 1541 1542 1543 1545 1545 1546 1547 1548 1549 1550 1551 1552 1553 1553 1554 1555 1556 1557 1558 1558 1558 1558 1558 1558 1558 1558 1558 1558
1515 1518 1520 1523 1525 1527 1529 1531 1533 1535 1536 1538 1539 1540 1541 1542 1543 1544 1545 1546 1547 1548 1549 1550 1551 1551 1552 1553 1554 1555 1556 1557 1558 1558 1558 1559 1559 1560 1559 1559 1559 1559 1559
1517 1519 1521 1524 1526 1528 1530 1532 1534 1535 1537 1538 1540 1541 1542 1543 1544 1545 1546 1547 1548 1549 1550 1550 1551 1552 1552 1553 1555 1556 1557 1558 1559 1559 1559 1559 1560 1560 1560 1560 1560 1560 1560
1519 1520 1523 1525 1527 1529 1531 1533 1534 1536 1537 1539 1540 1542 1543 1544 1545 1546 1547 1547 1548 1549 1550 1551 1551 1552 1553 1554 1555 1556 1557 1558 1559 1560 1560 1560 1560 1561 1561 1561 1561 1561 1561
1520 1521 1524 1526 1528 1530 1531 1533 1535 1536 1538 1539 1541 1542 1543 1544 1545 1546 1547 1548 1548 1549 1550 1551 1552 1553 1553 1554 1555 1556 1558 1559 1559 1560 1560 1560 1560 1561 1561 1561 1562 1562 1562
1521 1522 1524 1526 1528 1530 1532 1533 1535 1537 1538 1540 1541 1542 1543 1544 1545 1546 1547 1548 1549 1550 1551 1552 1552 1553 1554 1555 1556 1557 1558 1559 1560 1560 1560 1560 1561 1561 1562 1562 1562 1562 1563
1522 1523 1524 1527 1529 1530 1532 1533 1535 1537 1538 1540 1541 1542 1544 1545 1545 1546 1547 1548 1549 1550 1551 1552 1553 1554 1555 1556 1557 1558 1558 1559 1560 1560 1560 1560 1561 1561 1562 1562 1562 1563 1563
1523 1524 1525 1527 1529 1530 1532 1534 1535 1537 1538 1540 1541 1543 1544 1545 1546 1547 1547 1548 1549 1550 1551 1552 1553 1554 1555 1556 1557 1558 1559 1560 1561 1560 1560 1561 1561 1561 1562 1562 1563 1563 1564
1523 1524 1526 1528 1530 1531 1532 1534 1535 1537 1538 1540 1541 1543 1544 1545 1546 1547 1547 1549 1550 1551 1552 1553 1554 1555 1556 1557 1558 1559 1560 1560 1561 1561 1561 1561 1561 1562 1562 1562 1563 1563 1564
1523 1524 1526 1528 1530 1532 1533 1533 1535 1536 1538 1539 1541 1543 1544 1546 1547 1548 1548 1549 1550 1551 1552 1553 1554 1555 1556 1557 1559 1560 1560 1561 1562 1560 1561 1561 1562 1562 1562 1562 1563 1564 1564
1521 1523 1525 1527 1529 1531 1532 1533 1535 1536 1538 1539 1541 1543 1544 1546 1548 1548 1549 1550 1550 1551 1552 1553 1555 1556 1556 1557 1559 1560 1561 1562 1562 1560 1561 1561 1562 1562 1562 1562 1563 1564 1564
1520 1522 1524 1526 1527 1529 1531 1532 1534 1535 1537 1539 1540 1543 1544 1546 1548 1549 1549 1549 1550 1551 1552 1554 1555 1556 1557 1559 1560 1561 1561 1562 1561 1560 1561 1561 1561 1561 1561 1562 1562 1563 1564
1518 1520 1523 1525 1526 1528 1530 1531 1533 1534 1536 1538 1540 1542 1544 1546 1547 1549 1550 1550 1551 1552 1553 1554 1555 1558 1559 1559 1560 1561 1561 1561 1561 1560 1561 1561 1561 1561 1561 1561 1562 1563 1563
1515 1518 1521 1523 1525 1527 1528 1530 1532 1533 1535 1537 1539 1541 1543 1545 1547 1548 1550 1550 1552 1553 1554 1555 1556 1557 1558 1559 1560 1560 1561 1561 1561 1560 1560 1560 1560 1560 1561 1561 1562 1562 1563
1514 1516 1518 1520 1523 1525 1526 1528 1530 1532 1533 1535 1537 1539 1542 1543 1545 1547 1549 1549 1551 1553 1554 1555 1556 1557 1558 1558 1559 1560 1560 1561 1561 1560 1560 1560 1560 1560 1560 1561 1561 1562 1562
1513 1514 1516 1517 1520 1522 1524 1526 1528 1530 1531 1533 1535 1537 1540 1542 1544 1545 1547 1548 1550 1551 1553 1554 1555 1556 1557 1558 1559 1559 1560 1560 1560 1560 1560 1559 1559 1560 1560 1560 1561 1561 1562
1511 1512 1513 1515 1517 1519 1521 1524 1526 1527 1529 1531 1533 1535 1537 1540 1541 1543 1545 1547 1548 1550 1551 1553 1554 1555 1556 1557 1558 1559 1559 1560 1560 1560 1560 1560 1559 1559 1560 1560 1560 1561 1561
1509 1510 1512 1512 1513 1516 1518 1519 1522 1524 1526 1528 1530 1532 1535 1537 1539 1540 1542 1544 1546 1547 1549 1551 1552 1554 1555 1556 1557 1558 1558 1559 1559 1560 1560 1560 1560 1559 1559 1560 1560 1560 1560
1508 1508 1509 1509 1509 1512 1513 1515 1517 1519 1521 1524 1526 1528 1531 1534 1536 1537 1539 1541 1543 1544 1546 1548 1550 1551 1553 1554 1555 1556 1556 1557 1557 1558 1558 1559 1559 1559 1558 1558 1558 1559 1559
1506 1505 1505 1505 1506 1507 1508 1510 1512 1514 1516 1519 1522 1523 1526 1530 1533 1534 1536 1538 1540 1542 1544 1545 1547 1548 1550 1552 1553 1553 1554 1555 1555 1556 1556 1557 1558 1558 1558 1558 1558 1558 1558
1504 1502 1501 1501 1502 1502 1503 1505 1507 1508 1510 1514 1517 1519 1521 1525 1528 1531 1533 1535 1536 1538 1540 1542 1544 1545 1546 1548 1550 1551 1551 1551 1552 1553 1554 1554 1555 1556 1556 1557 1558 1557 1556
1502 1500 1498 1497 1497 1497 1498 1499 1501 1502 1504 1506 1511 1514 1517 1520 1523 1526 1529 1531 1533 1535 1536 1538 1540 1541 1543 1544 1545 1547 1548 1549 1550 1550 1551 1551 1552 1553 1554 1555 1556 1557 1556
1500 1497 1495 1493 1492 1492 1493 1494 1496 1497 1499 1503 1507 1509 1512 1516 1519 1522 1524 1527 1530 1532 1533 1534 1536 1537 1539 1540 1541 1542 1544 1545 1546 1547 1547 1548 1549 1550 1551 1552 1552 1554 1554
1498 1495 1492 1490 1489 1488 1489 1490 1492 1494 1496 1498 1501 1505 1509 1511 1514 1518 1521 1523 1526 1528 1529 1530 1532 1533 1534 1536 1537 1538 1539 1540 1541 1543 1544 1545 1546 1547 1548 1548 1549 1550 1551